SCP
0 0 0 0 0 0 0 0 0 0 0 0 0 0 0 0 0 0 0 0 0 0
0 0 0 0 0 0 0 0 0 0 0 0 0 0 0 0 0 0 0 0 0 0
0 0 -0 -0 0 0 0 0 0 0 0 0 0 0 0 0 0 0 0 0 0 0
0 0 -0 -0 0 0 0 0 0 0 0 0 0 0 0 0 0 0 0 0 0 0
-0 0 0 0 0 0 0 0 0 0 0 0 0 0 0 0 0 0 0 0 0 0
0 0 0 0 0 0 -0 -0 -0 0 0 0 0 0 0 0 0 0 0 0 0 0
-0 -0 -0 0 0 0 0 0 -0 -0 0 0 0 0 0 0 0 0 0 0 0 0
-0 -0 -0 -0 -0 0 -0 0 0 0 -0 0 0 0 0 0 0 0 0 0 0 0
-0 -0 -0 -0 -0 -0 -0 -0 -0 0 0 -0 -0 0 0 0 0 0 0 0 0 0
-0 -0 -0 0 -0 -0 -0 -0 -0 -0 -0 0 0 -0 -0 0 0 0 0 0 0 0
-0 -0 0 0 0 0 -0 0 0 0 0 0 0 -0 -0 -0 0 0 0 0 0 0
0 -0 -0 -0 -0 0 0 0 0 0 0 0 0 0 0 -0 0 0 0 0 0 0
0 0 0 0 0 -0 -0 -0 -0 0 0 0 0 0 0 0 0 0 0 0 0 0
0 0 0 0 0 -0 -0 -0 0 0 0 0 0 0 0 0 0 0 0 0 0 0
Wind_Speed_500mb
25 25 31 38 42 47 52 57 59 67 96 108 109 108 106 103 102 101 98 95 92 86
36 29 31 29 36 43 47 51 55 61 69 91 106 108 109 109 107 104 101 100 99 93
54 45 35 31 36 38 40 46 51 58 64 72 89 105 108 114 109 109 108 108 104 100
50 52 50 43 36 39 44 44 47 55 60 69 79 89 103 113 116 114 112 113 111 107
46 46 51 52 49 44 40 46 54 56 63 67 74 82 94 105 121 122 117 118 114 113
52 47 45 49 55 52 50 50 44 47 63 67 76 81 89 94 109 124 120 119 118 117
62 62 61 51 44 51 55 55 57 55 53 55 63 77 86 96 100 111 118 125 120 118
62 62 65 66 64 57 49 52 58 59 61 61 63 70 78 88 97 104 111 119 123 123
76 75 70 72 72 71 69 66 60 61 62 65 65 71 75 75 82 95 109 118 122 125
74 80 83 81 80 76 78 76 72 71 66 63 67 62 67 70 74 79 94 109 116 121
75 80 85 88 89 89 87 86 86 81 77 76 77 67 57 61 70 80 86 99 110 118
84 83 84 88 92 97 101 100 98 97 90 84 84 81 67 56 63 80 89 92 104 112
96 97 97 97 99 100 102 111 111 108 105 96 92 83 82 63 62 77 88 89 102 110
103 111 117 118 116 114 113 113 116 121 117 109 98 90 83 80 69 74 81 91 99 107
Wind_Direction_500mb
340 321 310 300 288 282 281 275 268 261 247 243 241 240 239 237 235 231 229 229 230 231
355 340 324 310 301 293 284 279 276 269 261 250 246 243 242 239 236 235 233 232 231 231
11 1 340 325 311 299 292 286 279 272 266 260 252 247 243 242 238 236 234 233 232 231
358 358 3 355 331 310 299 291 282 276 270 267 261 253 246 244 242 238 236 235 234 232
354 351 352 351 350 344 319 298 289 279 270 265 262 260 253 246 245 241 236 237 236 234
348 348 345 342 342 341 335 333 312 286 277 272 267 261 258 255 250 247 244 239 238 237
343 344 343 341 333 330 332 331 328 324 299 278 273 267 262 259 254 252 248 245 241 239
334 334 334 333 334 332 326 319 320 320 319 309 287 275 270 264 260 256 254 250 246 241
325 327 329 328 326 326 326 324 314 301 307 306 306 292 277 271 266 262 256 252 249 245
316 317 318 320 321 322 322 321 320 316 308 297 297 300 288 272 266 264 261 257 253 250
306 306 308 310 312 313 313 314 313 313 310 305 296 292 294 276 265 262 259 260 255 253
302 299 299 300 302 304 305 305 305 305 306 304 297 294 288 282 268 261 257 255 258 253
301 298 296 294 293 294 295 298 299 298 297 298 297 295 289 280 268 262 258 256 254 251
298 298 296 296 293 291 290 289 289 291 291 290 290 291 287 281 266 263 255 246 245 247
Wind_Speed_850mb
25 25 31 38 42 47 52 57 59 67 96 108 109 108 106 103 102 101 98 95 92 86
36 29 31 29 36 43 47 51 55 61 69 91 106 108 109 109 107 104 101 100 99 93
54 45 35 31 36 38 40 46 51 58 64 72 89 105 108 114 109 109 108 108 104 100
50 52 50 43 36 39 44 44 47 55 60 69 79 89 103 113 116 114 112 113 111 107
46 46 51 52 49 44 40 46 54 56 63 67 74 82 94 105 121 122 117 118 114 113
52 47 45 49 55 52 50 50 44 47 63 67 76 81 89 94 109 124 120 119 118 117
62 62 61 51 44 51 55 55 57 55 53 55 63 77 86 96 100 111 118 125 120 118
62 62 65 66 64 57 49 52 58 59 61 61 63 70 78 88 97 104 111 119 123 123
76 75 70 72 72 71 69 66 60 61 62 65 65 71 75 75 82 95 109 118 122 125
74 80 83 81 80 76 78 76 72 71 66 63 67 62 67 70 74 79 94 109 116 121
75 80 85 88 89 89 87 86 86 81 77 76 77 67 57 61 70 80 86 99 110 118
84 83 84 88 92 97 101 100 98 97 90 84 84 81 67 56 63 80 89 92 104 112
96 97 97 97 99 100 102 111 111 108 105 96 92 83 82 63 62 77 88 89 102 110
103 111 117 118 116 114 113 113 116 121 117 109 98 90 83 80 69 74 81 91 99 107
Wind_Direction_850mb
340 321 310 300 288 282 281 275 268 261 247 243 241 240 239 237 235 231 229 229 230 231
355 340 324 310 301 293 284 279 276 269 261 250 246 243 242 239 236 235 233 232 231 231
11 1 340 325 311 299 292 286 279 272 266 260 252 247 243 242 238 236 234 233 232 231
358 358 3 355 331 310 299 291 282 276 270 267 261 253 246 244 242 238 236 235 234 232
354 351 352 351 350 344 319 298 289 279 270 265 262 260 253 246 245 241 236 237 236 234
348 348 345 342 342 341 335 333 312 286 277 272 267 261 258 255 250 247 244 239 238 237
343 344 343 341 333 330 332 331 328 324 299 278 273 267 262 259 254 252 248 245 241 239
334 334 334 333 334 332 326 319 320 320 319 309 287 275 270 264 260 256 254 250 246 241
325 327 329 328 326 326 326 324 314 301 307 306 306 292 277 271 266 262 256 252 249 245
316 317 318 320 321 322 322 321 320 316 308 297 297 300 288 272 266 264 261 257 253 250
306 306 308 310 312 313 313 314 313 313 310 305 296 292 294 276 265 262 259 260 255 253
302 299 299 300 302 304 305 305 305 305 306 304 297 294 288 282 268 261 257 255 258 253
301 298 296 294 293 294 295 298 299 298 297 298 297 295 289 280 268 262 258 256 254 251
298 298 296 296 293 291 290 289 289 291 291 290 290 291 287 281 266 263 255 246 245 247